Torna al catalogo

SL-16 DEB

AttivoLEO
NORAD 29100·DEBRIS·🇷🇺 Russia

Lanciato Mar 26, 1993 da Baikonur Cosmodrome

Loading…

Prossimi Passaggi (prossime 24 ore)

TLE

AggiornatoSource: Space-Track

Epoca: Sep 14, 2026, 09:14 UTC

1 29100U 93016AP  26257.38531974  .00000300  00000-0  18453-3 0  9990
2 29100  70.7249 243.8693 0076915 308.2992  51.1226 14.12400166244012

Traccia SL-16 DEB in tempo reale con AllMySat

Download on the App Store